Location: Hilton Head Island
(32.2163°N, 80.7526°W)
Time: 18:51:17
(UTC-05:00)

Tiangong - Pass Details

Date: 28 January 2026
Orbit: 386 x 392 km, 41.5° (Epoch: 10 February)

Event Time Altitude Azimuth Distance (km) Brightness Sun altitude
Exits shadow 06:03:43 25° 339° (NNW) 844 -0.7 -16.2°
Maximum altitude 06:04:52 33° 21° (NNE) 687 -0.8 -15.9°
Drops below altitude 10° 06:07:50 10° 88° (E) 1,428 2.0 -15.3°
Sets 06:10:03 0° 98° (E) 2,282 3.7 -14.9°
